Regional Weather Roundup
Issued by NWS

Home | Current Version | Previous Version | Graphics & Text | Print | Product List | Glossary On
Versions: 1 2 3 4 5 6 7 8 9 10 11 12 13 14 15 16 17 18 19 20 21 22 23 24 25 26 27 28 29 30 31 32 33 34 35 36 37 38 39 40 41 42 43 44 45 46 47 48 49 50
375
ASUS45 KSLC 171110
RWRUT

UTAH REGIONAL WEATHER ROUNDUP
NATIONAL WEATHER SERVICE SALT LAKE CITY UT
400 AM MST SAT FEB 17 2018

UTZ001>011-023>025-171200-

NORTHERN UTAH

CITY           SKY/WX    TMP DP  RH WIND       PRES   REMARKS
BRIGHAM CITY   CLOUDY    35  20  53 CALM      30.19S
HILL AFB       PTCLDY    33  13  44 S5        30.18S WCI  29
LOGAN          MOCLDY    34  20  56 NE5       30.17S WCI  30
OGDEN          PTCLDY    35  15  44 S5        30.18S WCI  31
SALT LAKE CITY MOCLDY    33  17  51 SE8       30.20S WCI  26
TOOELE VALLEY  CLEAR     27  16  63 SW5       30.20S WCI  21
WENDOVER       CLEAR     22  10  60 VRB3      30.20S
HEBER CITY       N/A     19  14  79 E6        30.17S WCI  11
WEST JORDAN    CLEAR     27  17  67 SW7       30.20S WCI  19

$$

UTZ011>015-024>027-171200-

CENTRAL/NORTHEAST UTAH

CITY           SKY/WX    TMP DP  RH WIND       PRES   REMARKS
PROVO AIRPORT  CLEAR     24  18  77 SE3       30.22S
MOAB/CANYONLAN CLEAR     23  21  92 CALM      30.16S
DELTA          PTCLDY    19  14  79 S3        30.20S
PRICE          CLEAR     18   9  68 NE7       30.14R WCI   9
ROOSEVELT      CLEAR     27   9  46 N7        30.13R WCI  19
VERNAL         CLEAR     18   8  65 NW5       30.12R WCI  11

$$

UTZ013>016-019>022-027-171200-

SOUTHERN UTAH

CITY           SKY/WX    TMP DP  RH WIND       PRES   REMARKS
BRYCE CANYON   CLEAR     15  10  80 W12       30.18F WCI   2
CEDAR CITY     CLEAR     22  16  78 SW7       30.16F WCI  13
MILFORD        CLEAR     21  14  74 SW8       30.19S WCI  11
ST GEORGE      SUNNY     35  28  75 SE5       30.22S WCI  31
HANKSVILLE     CLEAR     23  14  68 CALM      30.20S
BLANDING         N/A     24  16  72 NE8       30.25S WCI  14

$$

REGIONAL REPORTS     COLORADO/ARIZONA

CITY           SKY/WX    TMP DP  RH WIND       PRES   REMARKS
CRAIG, CO      PTCLDY    18  10  71 CALM      30.12S
GRAND JUNCTION CLEAR     25  20  81 E7        30.18R WCI  17
RIFLE, CO      CLEAR     23  15  71 SW6       30.18R WCI  16
MONTROSE, CO   CLEAR     20  17  88 CALM      30.20S
CORTEZ, CO     CLEAR     18  15  88 E5        30.20R WCI  11
COLORADO CITY    N/A     27  23  86 S3        30.23S
PAGE, AZ       CLEAR     32  21  64 CALM      30.18S
GRAND CANYON   CLEAR     17  16  95 CALM      30.21F
KINGMAN, AZ    CLEAR     32  23  69 E7        30.19F WCI  26
FLAGSTAFF, AZ  CLEAR     24  22  91 CALM      30.20S

$$

REGIONAL REPORTS    NEVADA/IDAHO/WYOMING

CITY           SKY/WX    TMP DP  RH WIND       PRES   REMARKS
LAS VEGAS, NV  CLEAR     42  16  34 SW5       30.16F
ELY, NY        CLEAR     17  10  74 S10       30.22S WCI   5
ELKO, NV       CLEAR     17  15  92 CALM      30.20S
POCATELLO, ID  PTCLDY    29  23  78 SW8       30.14R WCI  21
BURLEY, ID     CLEAR     33  23  66 SW13      30.13F WCI  24
FORT BRIDGER,  CLOUDY    28  15  58 W20G28    30.11R WCI  14
EVANSTON, WY   PTCLDY    25  14  63 SW14      30.11R WCI  13
ROCK SPRINGS,  CLOUDY    27  13  55 W24       30.04R WCI  12

$$




USA.gov is the U.S. government's official web portal to all federal, state and local government web resources and services.